STARLINK-5057 (53908 NORAD) Tracking and Keplerian Element Data

This shows tracking and keplerian element data for the satellite.

Feedback or suggestion? Click here.




ElementValue
Catalog53908
NameSTARLINK-5057
Epoch Orbit946
Epoch Day325.33334491
Epoch Year2022
RAAN329.094
Inclination53.2147
Eccentricity0.0004395
Argument of Perigee4.6586
Mean Anonmoly208.2894
Mean Motion15.73175963
Decay Rate0.00047208
L11 53908U 22119Y 22325.33334491 .00047208 00000+0 33910-3 0 9993
L22 53908 53.2147 329.0940 0004395 4.6586 208.2894 15.73175963 9465



Live tracking and technical data element details for STARLINK-5057 (NORAD 53908). STARLINK-5057 can be tracked NOW for your location showing map with azimuth and elevation plus other details from your city location.







IsCatalogInMostPopularTable: catalog: 53908, numindb: 1
Update: records affected: 1



GetName: 53908 STARLINK-5057

Hit Count: updated at: Mon, 28 Nov 2022 22:11:39 GMT